| time (UTC) | temp F | wind direction | speed knots | gust knots | rain 1hr in | rain 24hr in | rain mn in | humidity % | barometer mb |
| 20260504050004 | 64 | 203 | 1.7 | 3.5 | 0.00 | 1.95 | 0.07 | 69 | 1007.0 |
| 20260504043004 | 61 | 203 | 3.5 | 11.3 | 0.00 | 1.95 | 0.07 | 73 | 1007.0 |
| 20260504040004 | 57 | 203 | 1.7 | 6.1 | 0.00 | 1.95 | 0.07 | 78 | 1006.6 |
| 20260504033004 | 58 | 203 | 1.7 | 9.6 | 0.00 | 1.95 | 0.07 | 78 | 1006.7 |
| 20260504030004 | 58 | 203 | 1.7 | 6.1 | 0.00 | 1.95 | 0.07 | 77 | 1006.5 |
| 20260504023003 | 61 | 203 | 1.7 | 7.0 | 0.00 | 1.95 | 0.07 | 73 | 1006.5 |
| 20260504020003 | 59 | 203 | 1.7 | 6.1 | 0.00 | 1.95 | 0.07 | 77 | 1006.2 |
| 20260504013004 | 59 | 203 | 1.7 | 6.1 | 0.00 | 1.95 | 0.07 | 79 | 1006.3 |
| 20260504010004 | 59 | 203 | 1.7 | 7.0 | 0.00 | 1.95 | 0.07 | 84 | 1006.5 |
| 20260504003004 | 58 | 203 | 1.7 | 5.2 | 0.00 | 1.95 | 0.07 | 86 | 1006.4 |
| 20260504000012 | 57 | 202 | 1.7 | 7.8 | 0.00 | 1.95 | 0.07 | 89 | 1006.4 |
| 20260503233004 | 56 | 203 | 1.7 | 6.1 | 0.00 | 1.95 | 0.07 | 92 | 1006.0 |
| 20260503230004 | 55 | 203 | 2.6 | 6.1 | 0.00 | 1.95 | 0.07 | 94 | 1005.8 |
| 20260503223004 | 55 | 202 | 2.6 | 9.6 | 0.00 | 1.95 | 0.07 | 97 | 1005.2 |
| 20260503220004 | 54 | 203 | 2.6 | 6.1 | 0.00 | 1.95 | 0.07 | 99 | 1004.7 |
| 20260503213004 | 54 | 203 | 2.6 | 7.8 | 0.00 | 1.95 | 0.07 | 99 | 1004.1 |
| 20260503210005 | 55 | 203 | 1.7 | 7.0 | 0.00 | 1.95 | 0.07 | 99 | 1003.9 |
| 20260503203004 | 56 | 203 | 3.5 | 13.0 | 0.00 | 1.95 | 0.07 | 92 | 1003.3 |
| 20260503200004 | 55 | 203 | 2.6 | 11.3 | 0.00 | 1.95 | 0.07 | 99 | 1003.0 |
| 20260503193004 | 55 | 202 | 2.6 | 7.8 | 0.00 | 1.95 | 0.07 | 99 | 1002.8 |
| 20260503190004 | 56 | 203 | 3.5 | 9.6 | 0.00 | 1.95 | 0.07 | 99 | 1002.7 |
| 20260503183004 | 57 | 202 | 2.6 | 7.0 | 0.04 | 1.95 | 0.07 | 99 | 1002.6 |
| 20260503180004 | 58 | 203 | 1.7 | 5.2 | 0.04 | 1.95 | 0.07 | 99 | 1002.0 |
| 20260503173004 | 58 | 203 | 3.5 | 12.2 | 0.00 | 1.91 | 0.04 | 99 | 1001.6 |